[[{"header":{"parameterUnit":"m.s-1","parameterCategory":1,"la1":30.2991,"la2":30.254,"lo1":-89.0895,"lo2":-89.0444,"dy":0.0017,"dx":0.0017,"nx":28,"ny":28,"refTime":"2024-06-27T03:00:00:Z","depth":0,"parameterNumber":2,"parameterNumberName":"U-component_of_WINDS"},"data":[0,0,0,0,0,0,0,0,0,0,0,0,0,0,0,0,0,0,0,0,0,0,0,0,0,0,0,0,0,0,0,0,0,0,0,0,0,0,0,0,0,0,0,0,0,0,0,0,0,0,0,0,0,0,0,0,0,0,4.3055,4.3055,0,4.3069,4.3069,4.307,4.2949,4.2946,4.2943,4.2939,4.2952,4.2956,4.2959,0,0,0,0,0,0,0,0,0,0,0,0,0,4.2922,4.2925,4.3055,4.3055,4.3055,4.3069,4.3069,4.307,4.295,4.2946,4.2942,4.2938,4.2951,4.2955,4.2959,0,0,0,0,0,0,0,0,0,0,0,0,0,4.2963,4.2926,4.3055,4.2997,4.2992,4.3069,4.3069,4.307,4.2951,4.2946,4.2941,4.2936,4.295,4.2955,4.296,4.3092,0,0,4.2976,4.2978,0,0,0,0,0,0,0,0,4.2961,4.2968,4.3006,4.3001,4.2996,4.3002,4.3027,4.3077,4.2952,4.2967,4.2939,4.2934,4.2973,4.2976,4.2989,4.3093,4.3093,4.2976,4.2979,4.2982,4.2983,0,0,0,0,0,0,0,4.2958,4.2966,4.306,4.3006,4.3,4.297,4.297,4.3036,4.2998,4.2965,4.2956,4.296,4.2969,4.2985,4.2989,4.3094,4.2976,4.2981,4.2984,4.2986,4.3305,4.331,0,0,0,0,0,0,4.2963,4.2965,4.306,4.3061,4.2966,4.2977,4.2977,4.3005,4.2997,4.299,4.2964,4.2954,4.2978,4.2983,4.2989,4.3141,4.2982,4.2986,4.2989,4.33,4.3306,4.3312,0,0,0,0,0,0,4.2961,4.2973,4.3059,4.3011,4.3019,4.2984,4.3017,4.3008,4.3023,4.2996,4.2988,4.2987,4.2975,4.2982,4.3067,4.314,4.2989,4.2993,4.3293,4.3302,4.3309,4.3448,0,0,0,0,0,0,4.2958,4.2973,4.3023,4.3013,4.3022,4.3138,4.3022,4.3012,4.3033,4.302,4.3015,4.301,4.2971,4.306,4.3072,4.3144,4.2998,4.3286,4.3297,4.3306,4.3436,4.346,4.3479,0,0,0,0,0,4.2953,4.3061,4.3026,4.3038,4.3084,4.3143,4.3148,4.3102,4.304,4.3089,4.3071,4.301,4.3131,4.307,4.3083,4.3157,4.3281,4.3294,4.3306,4.3427,4.3455,4.3479,0,0,0,0,0,0,4.3079,4.3058,4.3019,4.3127,4.3138,4.3122,4.3183,4.3134,4.3161,4.3148,4.309,4.309,4.3185,4.318,4.3112,4.3284,4.3195,4.321,4.3283,4.3309,4.3331,4.3328,4.3002,0,0,0,0,0,4.312,4.317,4.3149,4.3246,4.3254,4.3218,4.3242,4.3206,4.3214,4.3217,4.3206,4.3216,4.3256,4.3283,4.3319,4.3437,4.3433,4.3495,4.3516,4.3534,4.3546,4.3607,4.3633,4.3351,4.3351,4.3351,0,0,4.3203,4.3199,4.3233,4.3271,4.3275,4.3327,4.3222,4.3282,4.3319,4.3226,4.3305,4.3298,4.3305,4.3408,4.3452,4.3406,4.3624,4.3549,4.3564,4.3566,4.3622,4.3648,4.3672,4.336,4.3358,4.3357,0,0,4.3381,4.3384,4.3464,4.3471,4.3479,4.3455,4.3475,4.3467,4.3459,4.3538,4.3469,4.3513,4.3584,4.3591,4.3604,4.3789,4.3732,4.3802,4.3912,4.3972,4.3994,4.4013,4.4076,4.4099,4.3816,4.3816,4.3816,0,4.3483,4.3559,4.3512,4.3576,4.3594,4.3514,4.3594,4.3603,4.3622,4.3636,4.3586,4.3673,4.3672,4.3774,4.3819,4.3834,4.3853,4.38,4.3995,4.4014,4.4031,4.409,4.4114,4.3824,4.3823,4.3822,4.3822,0,4.3683,4.3738,4.3802,4.3822,4.3848,4.392,4.3883,4.3915,4.3878,4.386,4.3941,4.3939,4.3971,4.3994,4.3958,4.4091,4.4062,4.4005,4.3913,4.4067,4.4121,4.4143,4.3836,4.3833,4.383,4.3828,0,0,4.3936,4.3932,4.3956,4.3964,4.3968,4.4008,4.4078,4.411,4.4138,4.4155,4.4209,4.4273,4.422,4.4235,4.42,4.4253,4.4395,4.4188,4.4187,4.4224,4.4538,4.4578,4.4605,4.436,4.4365,4.4368,4.4536,0,4.4107,4.4224,4.4184,4.4302,4.435,4.4277,4.4337,4.4346,4.4331,4.437,4.4354,4.4398,4.4326,4.4334,4.4384,4.4368,4.4457,4.4356,4.4408,4.441,4.4403,4.4634,4.4676,4.4835,4.4558,4.4561,4.4564,0,4.432,4.4346,4.447,4.4465,4.4484,4.4539,4.4565,4.4604,4.4613,4.4598,4.4617,4.4571,4.4637,4.455,4.464,4.4571,4.4591,4.4587,4.4592,4.4591,4.4493,4.4636,4.4885,4.4908,4.4598,4.4595,4.4592,0,4.4488,4.4555,4.4636,4.4646,4.4644,4.4684,4.4685,4.4689,4.4711,4.4736,4.4749,4.4782,4.4798,4.4824,4.4787,4.4728,4.4881,4.4791,4.4869,4.487,4.49,4.4898,4.5152,4.4922,4.4921,4.4921,4.492,0,4.468,4.4757,4.4711,4.4761,4.4846,4.4801,4.4885,4.4878,4.4883,4.4929,4.487,4.4915,4.4866,4.4907,4.488,4.4956,4.4965,4.4954,4.4945,4.4957,4.4958,4.4965,4.4951,4.4927,4.4926,4.4924,4.4923,0,4.4879,4.4852,4.4936,4.4928,4.4928,4.4991,4.4983,4.5029,4.5012,4.5072,4.5083,4.5056,4.51,4.5068,4.5112,4.5094,4.5194,4.5172,4.5191,4.5183,4.526,4.5252,4.5525,4.5557,4.531,4.5312,4.5315,0,4.5001,4.5059,4.5058,4.5085,4.509,4.5136,4.5158,4.5117,4.5143,4.5159,4.5202,4.5242,4.5271,4.5345,4.5329,4.5362,4.5337,4.5431,4.5342,4.5351,4.5334,4.5329,4.5333,4.5447,4.545,4.5453,4.5455,0,4.5219,4.5203,4.5239,4.5271,4.53,4.5323,4.534,4.5366,4.5325,4.5357,4.5402,4.5425,4.5471,4.551,4.5538,4.5538,4.5489,4.5484,4.5503,4.5513,4.552,4.5513,4.5235,4.5476,4.5474,4.5473,4.5471,4.5471,4.538,4.5427,4.5434,4.5476,4.5486,4.5504,4.5546,4.5535,4.5572,4.5606,4.558,4.5634,4.5641,4.5674,4.5681,4.5721,4.5682,4.5711,4.5717,4.5723,4.5733,4.5518,4.5727,4.5726,4.5725,4.5725,4.5724,0,4.5591,4.5593,4.5632,4.5659,4.5692,4.5646,4.5664,4.5694,4.5742,4.5754,4.5784,4.5836,4.5875,4.5863,4.5897,4.5931,4.5909,4.5941,4.5935,4.5936,4.5767,4.5745,4.5958,4.5958,4.5958,4.5958,4.5958,4.5958,4.5704,4.5781,4.5767,4.5848,4.5849,4.5901,4.5915,4.5932,4.5941,4.6001,4.6033,4.6026,4.6028,4.6062,4.6095,4.609,4.6104,4.6143,4.613,4.5971,4.5948,4.5926,4.5905,4.6147,4.6148,4.6294,4.6296,4.6297]},{"header":{"parameterUnit":"m.s-1","parameterCategory":1,"la1":30.2991,"la2":30.254,"lo1":-89.0895,"lo2":-89.0444,"dy":0.0017,"dx":0.0017,"nx":28,"ny":28,"refTime":"2024-06-27T03:00:00:Z","depth":0,"parameterNumber":3,"parameterNumberName":"V-component_of_WINDS"},"data":[0,0,0,0,0,0,0,0,0,0,0,0,0,0,0,0,0,0,0,0,0,0,0,0,0,0,0,0,0,0,0,0,0,0,0,0,0,0,0,0,0,0,0,0,0,0,0,0,0,0,0,0,0,0,0,0,0,0,4.6189,4.6191,0,4.6327,4.6329,4.633,4.6333,4.6332,4.633,4.6328,4.6464,4.6469,4.6474,0,0,0,0,0,0,0,0,0,0,0,0,0,4.5921,4.5926,4.6189,4.6191,4.6193,4.6327,4.6329,4.6331,4.6334,4.6331,4.6329,4.6327,4.6462,4.6469,4.6475,0,0,0,0,0,0,0,0,0,0,0,0,0,4.6046,4.5928,4.6189,4.621,4.6214,4.6327,4.6329,4.6331,4.6334,4.6331,4.6329,4.6327,4.646,4.6468,4.6476,4.6575,0,0,4.65,4.6503,0,0,0,0,0,0,0,0,4.6039,4.6056,4.6206,4.6209,4.6213,4.6311,4.6284,4.6413,4.6335,4.6288,4.6328,4.6325,4.6415,4.6426,4.6457,4.6581,4.6587,4.65,4.6505,4.6508,4.6511,0,0,0,0,0,0,0,4.6031,4.605,4.6244,4.6208,4.6212,4.6211,4.6226,4.6309,4.6364,4.6292,4.6293,4.6309,4.6416,4.645,4.6461,4.6589,4.65,4.6507,4.6512,4.6515,4.6797,4.6799,0,0,0,0,0,0,4.6018,4.6043,4.6239,4.6248,4.6118,4.6218,4.6234,4.6282,4.6363,4.6373,4.6311,4.6309,4.6438,4.6452,4.6465,4.6584,4.6508,4.6516,4.652,4.6794,4.6797,4.68,0,0,0,0,0,0,4.6013,4.6036,4.6234,4.6146,4.6171,4.6225,4.6278,4.6286,4.632,4.6378,4.6387,4.6336,4.6436,4.6454,4.6547,4.6589,4.6519,4.6526,4.679,4.6795,4.6799,4.6824,0,0,0,0,0,0,4.6005,4.6034,4.6074,4.6147,4.6175,4.6315,4.6281,4.629,4.6334,4.6332,4.6403,4.6413,4.6436,4.6535,4.6555,4.6599,4.6532,4.6787,4.6792,4.6797,4.682,4.6829,4.6836,0,0,0,0,0,4.5995,4.6075,4.6076,4.61,4.6227,4.6318,4.6334,4.6361,4.6337,4.6376,4.6413,4.641,4.6582,4.6545,4.6567,4.6613,4.6784,4.6791,4.6797,4.6816,4.6827,4.6836,0,0,0,0,0,0,4.6006,4.6085,4.6087,4.6193,4.6249,4.6318,4.6369,4.6372,4.6434,4.643,4.6458,4.6474,4.6566,4.6599,4.6557,4.6711,4.668,4.6691,4.6687,4.6698,4.6706,4.6695,4.6539,0,0,0,0,0,4.602,4.6089,4.6155,4.6242,4.627,4.6315,4.6355,4.6371,4.6429,4.6452,4.6496,4.655,4.6616,4.6659,4.6723,4.6825,4.6838,4.6867,4.6875,4.6882,4.689,4.6943,4.6956,4.6821,4.6821,4.6821,0,0,4.6051,4.6103,4.6145,4.6245,4.629,4.6358,4.6334,4.6409,4.6458,4.6463,4.6553,4.6586,4.6649,4.6745,4.679,4.6776,4.6931,4.689,4.6895,4.69,4.6951,4.6964,4.6975,4.6825,4.6824,4.6824,0,0,4.6142,4.619,4.6266,4.6312,4.638,4.6409,4.6427,4.6496,4.6518,4.6609,4.6613,4.6671,4.6785,4.6829,4.6866,4.6969,4.6968,4.6989,4.7032,4.7083,4.7094,4.7103,4.7138,4.715,4.6998,4.6998,4.6998,0,4.6171,4.6277,4.6305,4.6379,4.6421,4.6429,4.6504,4.6546,4.6631,4.6659,4.6642,4.6783,4.6826,4.6931,4.6956,4.6987,4.7006,4.6981,4.709,4.71,4.7109,4.7142,4.7156,4.7,4.7,4.7,4.6999,0,4.6308,4.638,4.6433,4.6516,4.6564,4.6639,4.6675,4.6721,4.6731,4.6761,4.6851,4.6902,4.6975,4.7002,4.7013,4.7108,4.7096,4.7085,4.7053,4.7124,4.7155,4.7168,4.7003,4.7002,4.7002,4.7001,0,0,4.641,4.6506,4.6524,4.656,4.6635,4.6691,4.6763,4.6836,4.6873,4.693,4.699,4.7085,4.7074,4.7116,4.7131,4.7176,4.7251,4.7159,4.716,4.7172,4.7355,4.7363,4.7377,4.7251,4.7254,4.7256,4.7349,0,4.6507,4.6639,4.6665,4.6778,4.6844,4.685,4.6913,4.6964,4.6993,4.7051,4.7082,4.7147,4.7129,4.7154,4.7199,4.7233,4.7288,4.7227,4.7304,4.7307,4.7287,4.7394,4.7403,4.7489,4.7362,4.7364,4.7366,0,4.6639,4.67,4.682,4.6883,4.6911,4.6968,4.7034,4.709,4.7147,4.7164,4.721,4.722,4.7292,4.7258,4.7357,4.7314,4.7347,4.7368,4.7372,4.7379,4.734,4.7402,4.7517,4.7529,4.7386,4.7384,4.7383,0,4.6698,4.681,4.6896,4.6927,4.7003,4.7042,4.7075,4.7129,4.717,4.7228,4.7254,4.7319,4.7354,4.7402,4.7428,4.7401,4.7524,4.7492,4.7538,4.7537,4.7563,4.7561,4.7683,4.7587,4.7587,4.7587,4.7586,0,4.6803,4.6875,4.6923,4.6975,4.7055,4.7083,4.7161,4.7193,4.7241,4.7298,4.7307,4.736,4.7391,4.7448,4.7468,4.7545,4.7561,4.7575,4.7579,4.7574,4.7571,4.7595,4.7589,4.759,4.7589,4.7589,4.7588,0,4.6882,4.6918,4.7011,4.7075,4.7093,4.7149,4.7202,4.7252,4.728,4.7351,4.7369,4.7413,4.7479,4.751,4.7592,4.7605,4.7692,4.7693,4.7673,4.7675,4.7718,4.7712,4.7858,4.7877,4.777,4.7771,4.7772,0,4.6946,4.7002,4.7072,4.7111,4.7146,4.7209,4.725,4.7279,4.7321,4.7388,4.7429,4.7496,4.7551,4.7655,4.7693,4.7754,4.7756,4.7802,4.7765,4.7756,4.7754,4.775,4.7754,4.7809,4.781,4.7811,4.7811,0,4.7055,4.7069,4.713,4.7196,4.7245,4.7298,4.735,4.7381,4.7417,4.7463,4.7532,4.7574,4.7657,4.7722,4.7786,4.7817,4.7819,4.7823,4.7836,4.783,4.7816,4.7822,4.769,4.7819,4.7818,4.7818,4.7817,4.7817,4.7128,4.7177,4.7233,4.7299,4.7341,4.7388,4.7437,4.7471,4.7529,4.76,4.7612,4.7684,4.7735,4.7822,4.7855,4.791,4.7898,4.7918,4.7923,4.7927,4.7929,4.7808,4.7921,4.7921,4.7921,4.7921,4.7921,0,4.7235,4.7271,4.7332,4.7404,4.7455,4.7454,4.751,4.7552,4.7616,4.7664,4.7718,4.7795,4.7857,4.7899,4.7961,4.7997,4.7999,4.8012,4.8009,4.8015,4.7936,4.7918,4.8009,4.8009,4.8009,4.8009,4.8009,4.8009,4.7297,4.7379,4.7399,4.75,4.7535,4.7606,4.7638,4.7681,4.7719,4.7805,4.7858,4.7885,4.7929,4.7995,4.8051,4.8061,4.8083,4.8096,4.8105,4.803,4.8021,4.8012,4.7995,4.8101,4.8101,4.818,4.818,4.8181]}]]